VXP400 KHVN-KDTW

Flight info

Callsign VXP400
Flight time 1h 29m
Altitude 36000
Route CCC DPK DEEZZ GAYEL J95 CFB TRAAD JACCI FERRL2
Aircraft B737/M-SDE2E3FGHIRWXY/LB1

Departure

Time 2026-05-05 19:14
Airport Tweed New Haven Airport (KHVN)

Arrival

Time 2026-05-05 20:44
Airport Detroit Metropolitan Wayne County Airport (KDTW)
Time Latitude Longitude Altitude Speed Heading
2026-05-05 18:54 41.26915 -72.89005 31 ft 0 kts 310°
2026-05-05 19:07 41.26911 -72.88999 30 ft 2 kts 310°
2026-05-05 19:07 41.26901 -72.88985 30 ft 2 kts 310°
2026-05-05 19:08 41.26892 -72.88969 30 ft 2 kts 310°
2026-05-05 19:08 41.26882 -72.88954 29 ft 2 kts 310°
2026-05-05 19:08 41.26872 -72.88939 29 ft 2 kts 310°
2026-05-05 19:08 41.26865 -72.88928 29 ft 1 kts 339°
2026-05-05 19:09 41.26855 -72.88929 28 ft 1 kts 38°
2026-05-05 19:09 41.26845 -72.88943 29 ft 2 kts 39°
2026-05-05 19:09 41.26840 -72.88948 29 ft 0 kts 37°
2026-05-05 19:12 41.26843 -72.88945 29 ft 1 kts 37°
2026-05-05 19:12 41.26859 -72.88928 28 ft 4 kts 38°
2026-05-05 19:12 41.26900 -72.88908 29 ft 8 kts
2026-05-05 19:13 41.26959 -72.88902 30 ft 7 kts
2026-05-05 19:13 41.27021 -72.88881 31 ft 11 kts 32°
2026-05-05 19:13 41.27088 -72.88813 30 ft 12 kts 38°
2026-05-05 19:13 41.27114 -72.88741 29 ft 7 kts 124°
2026-05-05 19:14 41.27042 -72.88728 28 ft 30 kts 182°
2026-05-05 19:14 41.26467 -72.88769 27 ft 132 kts 182°
2026-05-05 19:14 41.25317 -72.88881 414 ft 187 kts 187°
2026-05-05 19:14 41.23940 -72.89195 964 ft 212 kts 194°
2026-05-05 19:15 41.22544 -72.89748 1374 ft 205 kts 201°
2026-05-05 19:15 41.21186 -72.90398 1563 ft 210 kts 200°
2026-05-05 19:15 41.19906 -72.91034 2176 ft 194 kts 206°
2026-05-05 19:15 41.18652 -72.91930 2017 ft 217 kts 209°
2026-05-05 19:16 41.17235 -72.92888 1864 ft 230 kts 207°
2026-05-05 19:16 41.15791 -72.93822 2053 ft 229 kts 207°
2026-05-05 19:16 41.14353 -72.94735 2532 ft 233 kts 207°
2026-05-05 19:16 41.12874 -72.95654 3025 ft 236 kts 207°
2026-05-05 19:17 41.11384 -72.96561 3514 ft 237 kts 207°
2026-05-05 19:17 41.09861 -72.97472 4009 ft 239 kts 207°
2026-05-05 19:17 41.08358 -72.98395 4496 ft 238 kts 212°
2026-05-05 19:17 41.07229 -72.99923 4986 ft 237 kts 243°
2026-05-05 19:18 41.07044 -73.02113 5481 ft 250 kts 277°
2026-05-05 19:18 41.07928 -73.04153 5969 ft 267 kts 307°
2026-05-05 19:18 41.09282 -73.05874 6468 ft 270 kts 307°
2026-05-05 19:18 41.10441 -73.07764 6951 ft 263 kts 296°
2026-05-05 19:19 41.11311 -73.09887 7440 ft 260 kts 287°
2026-05-05 19:19 41.11952 -73.12087 7836 ft 259 kts 283°
2026-05-05 19:19 41.12505 -73.14372 7928 ft 263 kts 281°
2026-05-05 19:19 41.13044 -73.16721 8096 ft 272 kts 281°
2026-05-05 19:20 41.13596 -73.19093 9308 ft 269 kts 282°
2026-05-05 19:20 41.14141 -73.21387 10538 ft 263 kts 282°
2026-05-05 19:20 41.14700 -73.23759 11251 ft 278 kts 283°
2026-05-05 19:20 41.15284 -73.26237 11916 ft 292 kts 283°
2026-05-05 19:21 41.15904 -73.28863 12544 ft 308 kts 284°
2026-05-05 19:21 41.16556 -73.31621 13111 ft 324 kts 284°
2026-05-05 19:21 41.17245 -73.34521 14026 ft 330 kts 284°
2026-05-05 19:21 41.17932 -73.37410 14879 ft 336 kts 284°
2026-05-05 19:22 41.18634 -73.40370 15723 ft 342 kts 285°
2026-05-05 19:22 41.19359 -73.43439 16526 ft 349 kts 285°
2026-05-05 19:22 41.20082 -73.46498 17310 ft 355 kts 285°
2026-05-05 19:22 41.20820 -73.49637 18119 ft 360 kts 285°
2026-05-05 19:23 41.21576 -73.52850 18976 ft 364 kts 285°
2026-05-05 19:23 41.22332 -73.56072 19822 ft 367 kts 285°
2026-05-05 19:23 41.23091 -73.59307 20488 ft 374 kts 285°
2026-05-05 19:23 41.23864 -73.62605 21239 ft 378 kts 285°
2026-05-05 19:24 41.24652 -73.65975 21995 ft 382 kts 285°
2026-05-05 19:24 41.25438 -73.69342 22713 ft 386 kts 285°
2026-05-05 19:24 41.26237 -73.72778 23373 ft 391 kts 284°
2026-05-05 19:24 41.27036 -73.76215 24165 ft 393 kts 285°
2026-05-05 19:25 41.27846 -73.79707 24768 ft 398 kts 285°
2026-05-05 19:25 41.28664 -73.83235 25445 ft 401 kts 285°
2026-05-05 19:25 41.29487 -73.86788 26163 ft 403 kts 285°
2026-05-05 19:25 41.30308 -73.90337 26809 ft 405 kts 286°
2026-05-05 19:26 41.31139 -73.93935 27421 ft 408 kts 285°
2026-05-05 19:26 41.31966 -73.97527 28123 ft 409 kts 286°
2026-05-05 19:26 41.32799 -74.01150 28544 ft 416 kts 286°
2026-05-05 19:26 41.33650 -74.04864 29245 ft 416 kts 286°
2026-05-05 19:27 41.34492 -74.08538 29782 ft 419 kts 287°
2026-05-05 19:27 41.35346 -74.12270 30338 ft 422 kts 286°
2026-05-05 19:27 41.36203 -74.16015 31015 ft 422 kts 287°
2026-05-05 19:27 41.37047 -74.19709 31803 ft 418 kts 287°
2026-05-05 19:28 41.37884 -74.23376 32629 ft 414 kts 287°
2026-05-05 19:28 41.38713 -74.27019 33456 ft 408 kts 287°
2026-05-05 19:28 41.39533 -74.30595 34191 ft 404 kts 288°
2026-05-05 19:28 41.40407 -74.34094 34978 ft 399 kts 290°
2026-05-05 19:29 41.41486 -74.37513 35549 ft 400 kts 294°
2026-05-05 19:29 41.42749 -74.40792 35748 ft 407 kts 297°
2026-05-05 19:29 41.45589 -74.47356 35839 ft 404 kts 299°
2026-05-05 19:30 41.48419 -74.53736 35838 ft 400 kts 298°
2026-05-05 19:30 41.51227 -74.60135 35840 ft 402 kts 298°
2026-05-05 19:31 41.54028 -74.66585 35845 ft 400 kts 298°
2026-05-05 19:31 41.56797 -74.73006 35852 ft 398 kts 297°
2026-05-05 19:32 41.59553 -74.79424 35853 ft 399 kts 297°
2026-05-05 19:32 41.62308 -74.85858 35853 ft 398 kts 297°
2026-05-05 19:33 41.65050 -74.92282 35854 ft 399 kts 297°
2026-05-05 19:33 41.67789 -74.98702 35851 ft 398 kts 297°
2026-05-05 19:34 41.70519 -75.05123 35853 ft 396 kts 297°
2026-05-05 19:35 41.74591 -75.14728 35824 ft 398 kts 297°
2026-05-05 19:35 41.77299 -75.21136 35860 ft 397 kts 297°
2026-05-05 19:36 41.80016 -75.27576 35866 ft 397 kts 297°
2026-05-05 19:36 41.82730 -75.34023 35857 ft 396 kts 297°
2026-05-05 19:37 41.85424 -75.40434 35861 ft 397 kts 297°
2026-05-05 19:37 41.88107 -75.46842 35854 ft 395 kts 297°
2026-05-05 19:38 41.90795 -75.53268 35849 ft 395 kts 297°
2026-05-05 19:38 41.93469 -75.59672 35833 ft 391 kts 297°
2026-05-05 19:39 41.96115 -75.66024 35833 ft 394 kts 296°
2026-05-05 19:39 41.98780 -75.72431 35826 ft 391 kts 296°
2026-05-05 19:40 42.01429 -75.78817 35823 ft 391 kts 296°
2026-05-05 19:40 42.04056 -75.85167 35818 ft 390 kts 296°
2026-05-05 19:41 42.06678 -75.91520 35812 ft 389 kts 296°
2026-05-05 19:41 42.09298 -75.97878 35807 ft 388 kts 295°
2026-05-05 19:42 42.11928 -76.04271 35805 ft 388 kts 295°
2026-05-05 19:42 42.14428 -76.10657 35811 ft 385 kts 291°
2026-05-05 19:43 42.15991 -76.17538 35815 ft 382 kts 280°
2026-05-05 19:43 42.16676 -76.24622 35815 ft 383 kts 275°
2026-05-05 19:44 42.17200 -76.31747 35821 ft 382 kts 275°
2026-05-05 19:44 42.17717 -76.38846 35819 ft 382 kts 276°
2026-05-05 19:45 42.18242 -76.45937 35816 ft 381 kts 275°
2026-05-05 19:45 42.18771 -76.53006 35808 ft 378 kts 275°
2026-05-05 19:46 42.19298 -76.60088 35809 ft 379 kts 275°
2026-05-05 19:46 42.19814 -76.67091 35805 ft 377 kts 275°
2026-05-05 19:47 42.20327 -76.74116 35804 ft 377 kts 275°
2026-05-05 19:47 42.20835 -76.81143 35807 ft 376 kts 275°
2026-05-05 19:48 42.21337 -76.88149 35807 ft 375 kts 274°
2026-05-05 19:48 42.21835 -76.95128 35808 ft 376 kts 275°
2026-05-05 19:49 42.22333 -77.02174 35810 ft 375 kts 275°
2026-05-05 19:49 42.22817 -77.09119 35811 ft 372 kts 275°
2026-05-05 19:50 42.23301 -77.16106 35819 ft 377 kts 274°
2026-05-05 19:50 42.23782 -77.23076 35815 ft 373 kts 274°
2026-05-05 19:51 42.24258 -77.30050 35814 ft 373 kts 274°
2026-05-05 19:51 42.24729 -77.37035 35810 ft 372 kts 275°
2026-05-05 19:52 42.25191 -77.43971 35815 ft 372 kts 275°
2026-05-05 19:52 42.25680 -77.50960 35813 ft 374 kts 276°
2026-05-05 19:53 42.26660 -77.57791 35811 ft 374 kts 282°
2026-05-05 19:53 42.27916 -77.64585 35805 ft 372 kts 282°
2026-05-05 19:54 42.29189 -77.71398 35802 ft 374 kts 282°
2026-05-05 19:54 42.30438 -77.78216 35801 ft 371 kts 281°
2026-05-05 19:55 42.31652 -77.84954 35802 ft 372 kts 281°
2026-05-05 19:55 42.32866 -77.91753 35798 ft 371 kts 281°
2026-05-05 19:56 42.34066 -77.98511 35798 ft 372 kts 281°
2026-05-05 19:56 42.35266 -78.05302 35792 ft 371 kts 281°
2026-05-05 19:57 42.36459 -78.12075 35795 ft 370 kts 281°
2026-05-05 19:57 42.37643 -78.18812 35795 ft 370 kts 280°
2026-05-05 19:58 42.38825 -78.25575 35796 ft 368 kts 281°
2026-05-05 19:58 42.40002 -78.32320 35792 ft 370 kts 281°
2026-05-05 19:59 42.41180 -78.39106 35794 ft 369 kts 281°
2026-05-05 19:59 42.42341 -78.45823 35795 ft 367 kts 280°
2026-05-05 20:00 42.43507 -78.52596 35791 ft 368 kts 280°
2026-05-05 20:00 42.44662 -78.59315 35789 ft 367 kts 281°
2026-05-05 20:01 42.45815 -78.66061 35791 ft 367 kts 279°
2026-05-05 20:01 42.46862 -78.72791 35785 ft 365 kts 276°
2026-05-05 20:02 42.47290 -78.79612 35786 ft 364 kts 271°
2026-05-05 20:02 42.47493 -78.86498 35784 ft 361 kts 271°
2026-05-05 20:03 42.47689 -78.93271 35783 ft 363 kts 271°
2026-05-05 20:03 42.47896 -79.00109 35783 ft 362 kts 270°
2026-05-05 20:04 42.48107 -79.06921 35785 ft 363 kts 270°
2026-05-05 20:04 42.48322 -79.13879 35789 ft 377 kts 271°
2026-05-05 20:05 42.48539 -79.21041 35799 ft 379 kts 271°
2026-05-05 20:05 42.48750 -79.28104 35804 ft 378 kts 270°
2026-05-05 20:06 42.48957 -79.35260 35801 ft 377 kts 270°
2026-05-05 20:06 42.49160 -79.42348 35799 ft 378 kts 271°
2026-05-05 20:07 42.49358 -79.49410 35793 ft 377 kts 271°
2026-05-05 20:07 42.49554 -79.56516 35793 ft 377 kts 271°
2026-05-05 20:08 42.49746 -79.63644 35790 ft 377 kts 271°
2026-05-05 20:08 42.49931 -79.70705 35790 ft 374 kts 270°
2026-05-05 20:09 42.50111 -79.77770 35924 ft 377 kts 270°
2026-05-05 20:09 42.50287 -79.84866 35938 ft 377 kts 270°
2026-05-05 20:10 42.50460 -79.91957 35935 ft 374 kts 270°
2026-05-05 20:10 42.50628 -79.99026 35935 ft 377 kts 270°
2026-05-05 20:11 42.50790 -80.06104 35942 ft 374 kts 270°
2026-05-05 20:11 42.50949 -80.13168 35948 ft 377 kts 270°
2026-05-05 20:12 42.51105 -80.20291 35949 ft 377 kts 270°
2026-05-05 20:12 42.51260 -80.27376 35944 ft 376 kts 270°
2026-05-05 20:13 42.51407 -80.34426 35947 ft 376 kts 270°
2026-05-05 20:13 42.51548 -80.41491 35946 ft 375 kts 271°
2026-05-05 20:14 42.51683 -80.48587 35946 ft 376 kts 271°
2026-05-05 20:14 42.51815 -80.55683 35948 ft 376 kts 270°
2026-05-05 20:15 42.51940 -80.62763 35950 ft 375 kts 270°
2026-05-05 20:15 42.52029 -80.69782 35947 ft 373 kts 270°
2026-05-05 20:16 42.52098 -80.76850 35949 ft 377 kts 269°
2026-05-05 20:16 42.52161 -80.83947 35737 ft 376 kts 269°
2026-05-05 20:16 42.52190 -80.87484 35163 ft 378 kts 268°
2026-05-05 20:17 42.52222 -80.91036 34384 ft 375 kts 268°
2026-05-05 20:17 42.52253 -80.94531 33516 ft 374 kts 268°
2026-05-05 20:17 42.52284 -80.98071 32644 ft 379 kts 268°
2026-05-05 20:17 42.52306 -81.01676 31773 ft 384 kts 268°
2026-05-05 20:18 42.52329 -81.05267 30917 ft 387 kts 268°
2026-05-05 20:18 42.52359 -81.08943 30056 ft 389 kts 268°
2026-05-05 20:18 42.52390 -81.12637 29210 ft 395 kts 268°
2026-05-05 20:18 42.52416 -81.16348 28378 ft 400 kts 268°
2026-05-05 20:19 42.52442 -81.20104 27547 ft 404 kts 268°
2026-05-05 20:19 42.52466 -81.23918 26728 ft 408 kts 268°
2026-05-05 20:19 42.52489 -81.27782 25909 ft 410 kts 268°
2026-05-05 20:19 42.52510 -81.31645 25099 ft 416 kts 268°
2026-05-05 20:20 42.52531 -81.35564 24356 ft 410 kts 268°
2026-05-05 20:20 42.52473 -81.39401 24027 ft 407 kts 265°
2026-05-05 20:20 42.52259 -81.43200 23967 ft 406 kts 263°
2026-05-05 20:20 42.51962 -81.47035 23959 ft 408 kts 263°
2026-05-05 20:21 42.51642 -81.50831 23967 ft 412 kts 263°
2026-05-05 20:21 42.51318 -81.54669 23955 ft 402 kts 263°
2026-05-05 20:21 42.51012 -81.58382 23956 ft 391 kts 263°
2026-05-05 20:21 42.50718 -81.61993 23954 ft 388 kts 263°
2026-05-05 20:22 42.50433 -81.65579 23952 ft 367 kts 262°
2026-05-05 20:22 42.50173 -81.68898 23954 ft 346 kts 262°
2026-05-05 20:22 42.49927 -81.72055 23955 ft 331 kts 262°
2026-05-05 20:22 42.49682 -81.75184 23959 ft 333 kts 263°
2026-05-05 20:23 42.49439 -81.78303 23959 ft 333 kts 263°
2026-05-05 20:23 42.49193 -81.81447 23907 ft 334 kts 262°
2026-05-05 20:23 42.48951 -81.84541 23525 ft 334 kts 263°
2026-05-05 20:23 42.48705 -81.87682 22796 ft 333 kts 263°
2026-05-05 20:24 42.48466 -81.90765 22026 ft 328 kts 262°
2026-05-05 20:24 42.48232 -81.93793 21258 ft 324 kts 262°
2026-05-05 20:24 42.48000 -81.96779 20491 ft 319 kts 262°
2026-05-05 20:24 42.47765 -81.99778 19706 ft 316 kts 262°
2026-05-05 20:25 42.47536 -82.02689 18952 ft 315 kts 261°
2026-05-05 20:25 42.47303 -82.05625 18185 ft 312 kts 260°
2026-05-05 20:25 42.47073 -82.08529 17422 ft 307 kts 260°
2026-05-05 20:25 42.46843 -82.11398 16659 ft 306 kts 260°
2026-05-05 20:26 42.46612 -82.14216 15904 ft 302 kts 260°
2026-05-05 20:26 42.46384 -82.17024 15149 ft 301 kts 260°
2026-05-05 20:26 42.46160 -82.19811 14374 ft 297 kts 260°
2026-05-05 20:26 42.45935 -82.22568 13616 ft 294 kts 260°
2026-05-05 20:27 42.45711 -82.25266 12862 ft 291 kts 260°
2026-05-05 20:27 42.45487 -82.27983 12091 ft 288 kts 260°
2026-05-05 20:27 42.45274 -82.30665 11385 ft 284 kts 260°
2026-05-05 20:27 42.45063 -82.33268 11062 ft 279 kts 259°
2026-05-05 20:28 42.44790 -82.35877 10973 ft 282 kts 258°
2026-05-05 20:28 42.44471 -82.38500 10965 ft 279 kts 258°
2026-05-05 20:28 42.44159 -82.41029 10881 ft 261 kts 258°
2026-05-05 20:28 42.43862 -82.43430 10454 ft 255 kts 257°
2026-05-05 20:29 42.43572 -82.45784 9752 ft 255 kts 257°
2026-05-05 20:29 42.43281 -82.48119 9038 ft 256 kts 258°
2026-05-05 20:29 42.42983 -82.50511 8339 ft 256 kts 259°
2026-05-05 20:29 42.42699 -82.52829 8012 ft 244 kts 259°
2026-05-05 20:30 42.42423 -82.55095 7961 ft 244 kts 259°
2026-05-05 20:30 42.42145 -82.57356 7967 ft 243 kts 259°
2026-05-05 20:30 42.41862 -82.59648 7975 ft 244 kts 259°
2026-05-05 20:30 42.41587 -82.61893 7965 ft 241 kts 259°
2026-05-05 20:31 42.41312 -82.64136 7839 ft 245 kts 259°
2026-05-05 20:31 42.41032 -82.66406 7316 ft 245 kts 259°
2026-05-05 20:31 42.40752 -82.68653 6997 ft 240 kts 260°
2026-05-05 20:31 42.40470 -82.70916 6966 ft 240 kts 260°
2026-05-05 20:32 42.40192 -82.73159 6979 ft 243 kts 260°
2026-05-05 20:32 42.39915 -82.75405 6976 ft 240 kts 260°
2026-05-05 20:32 42.39764 -82.77657 6972 ft 242 kts 270°
2026-05-05 20:32 42.40200 -82.79871 6916 ft 250 kts 291°
2026-05-05 20:33 42.41074 -82.81918 6513 ft 254 kts 297°
2026-05-05 20:33 42.42027 -82.83974 6047 ft 254 kts 297°
2026-05-05 20:33 42.42915 -82.85988 5975 ft 245 kts 296°
2026-05-05 20:33 42.43763 -82.88003 5974 ft 245 kts 296°
2026-05-05 20:34 42.44588 -82.90001 5976 ft 240 kts 296°
2026-05-05 20:34 42.45393 -82.91959 5979 ft 238 kts 295°
2026-05-05 20:34 42.46205 -82.93926 5976 ft 235 kts 296°
2026-05-05 20:34 42.47045 -82.95759 5921 ft 227 kts 299°
2026-05-05 20:35 42.47919 -82.97566 5521 ft 228 kts 300°
2026-05-05 20:35 42.48777 -82.99360 5047 ft 224 kts 300°
2026-05-05 20:35 42.49617 -83.01164 4966 ft 223 kts 300°
2026-05-05 20:35 42.50438 -83.02949 4927 ft 226 kts 300°
2026-05-05 20:36 42.51197 -83.04809 4528 ft 226 kts 293°
2026-05-05 20:36 42.51679 -83.06837 4041 ft 222 kts 281°
2026-05-05 20:36 42.51799 -83.08934 3968 ft 223 kts 269°
2026-05-05 20:36 42.51577 -83.10972 3969 ft 211 kts 258°
2026-05-05 20:37 42.51055 -83.12809 3714 ft 213 kts 246°
2026-05-05 20:37 42.50229 -83.14494 3162 ft 218 kts 233°
2026-05-05 20:37 42.49125 -83.15876 2967 ft 212 kts 220°
2026-05-05 20:37 42.47814 -83.16878 2981 ft 218 kts 210°
2026-05-05 20:38 42.46402 -83.17699 2985 ft 219 kts 207°
2026-05-05 20:38 42.45000 -83.18497 2991 ft 218 kts 207°
2026-05-05 20:38 42.43551 -83.19261 2987 ft 221 kts 202°
2026-05-05 20:38 42.42073 -83.19810 2986 ft 221 kts 200°
2026-05-05 20:39 42.40631 -83.20499 2986 ft 218 kts 208°
2026-05-05 20:39 42.39250 -83.21378 2988 ft 218 kts 212°
2026-05-05 20:39 42.37897 -83.22312 2997 ft 209 kts 212°
2026-05-05 20:39 42.36636 -83.23171 2987 ft 195 kts 212°
2026-05-05 20:40 42.35423 -83.23993 2829 ft 198 kts 212°
2026-05-05 20:40 42.34193 -83.24827 2360 ft 194 kts 211°
2026-05-05 20:40 42.33009 -83.25623 1954 ft 189 kts 210°
2026-05-05 20:40 42.31835 -83.26419 1713 ft 186 kts 210°
2026-05-05 20:41 42.30697 -83.27188 1775 ft 179 kts 210°
2026-05-05 20:41 42.29572 -83.27942 1969 ft 182 kts 210°
2026-05-05 20:41 42.28461 -83.28686 1991 ft 165 kts 210°
2026-05-05 20:41 42.27497 -83.29357 1996 ft 150 kts 213°
2026-05-05 20:42 42.26586 -83.30035 1963 ft 147 kts 214°
2026-05-05 20:42 42.25680 -83.30670 1894 ft 145 kts 211°
2026-05-05 20:42 42.24766 -83.31286 1621 ft 146 kts 211°
2026-05-05 20:42 42.23900 -83.31908 1419 ft 140 kts 214°
2026-05-05 20:43 42.23053 -83.32580 1090 ft 139 kts 213°
2026-05-05 20:43 42.22224 -83.33215 779 ft 136 kts 212°
2026-05-05 20:43 42.21415 -83.33820 635 ft 124 kts 211°
2026-05-05 20:43 42.20790 -83.34280 635 ft 62 kts 209°
2026-05-05 20:44 42.20600 -83.34498 635 ft 23 kts 236°
2026-05-05 20:44 42.20578 -83.34543 635 ft 0 kts 238°
2026-05-05 20:45 42.20571 -83.34558 635 ft 3 kts 244°
2026-05-05 20:45 42.20564 -83.34596 635 ft 5 kts 275°
2026-05-05 20:46 42.20592 -83.34641 635 ft 8 kts 338°
2026-05-05 20:46 42.20653 -83.34630 635 ft 9 kts 28°
2026-05-05 20:46 42.20710 -83.34586 635 ft 9 kts 30°
2026-05-05 20:46 42.20768 -83.34543 635 ft 9 kts 29°
2026-05-05 20:47 42.20826 -83.34502 635 ft 9 kts 29°
2026-05-05 20:47 42.20883 -83.34460 635 ft 9 kts 29°
2026-05-05 20:47 42.20941 -83.34417 635 ft 9 kts 27°
2026-05-05 20:47 42.20998 -83.34375 635 ft 9 kts 29°
2026-05-05 20:48 42.21056 -83.34332 635 ft 9 kts 29°
2026-05-05 20:48 42.21126 -83.34282 635 ft 13 kts 29°
2026-05-05 20:48 42.21216 -83.34214 635 ft 16 kts 30°
2026-05-05 20:48 42.21325 -83.34132 635 ft 19 kts 30°
2026-05-05 20:49 42.21450 -83.34040 635 ft 21 kts 28°
2026-05-05 20:49 42.21587 -83.33942 635 ft 23 kts 28°
2026-05-05 20:49 42.21733 -83.33833 635 ft 24 kts 28°
2026-05-05 20:49 42.21847 -83.33829 635 ft 17 kts 283°
2026-05-05 20:50 42.21845 -83.33994 635 ft 17 kts 268°
2026-05-05 20:50 42.21842 -83.34159 635 ft 17 kts 274°
2026-05-05 20:50 42.21841 -83.34312 637 ft 15 kts 268°
2026-05-05 20:50 42.21839 -83.34450 638 ft 14 kts 269°
2026-05-05 20:51 42.21837 -83.34586 638 ft 14 kts 269°
2026-05-05 20:51 42.21834 -83.34723 638 ft 14 kts 268°
2026-05-05 20:51 42.21831 -83.34860 638 ft 14 kts 269°
2026-05-05 20:51 42.21896 -83.34936 638 ft 13 kts 313°
2026-05-05 20:52 42.21902 -83.35055 639 ft 12 kts 269°
2026-05-05 20:52 42.21900 -83.35169 639 ft 12 kts 269°
2026-05-05 20:52 42.21905 -83.35278 640 ft 10 kts 301°
2026-05-05 20:52 42.21969 -83.35290 641 ft 9 kts 24°
2026-05-05 20:53 42.22025 -83.35251 641 ft 8 kts 28°
2026-05-05 20:53 42.22079 -83.35210 641 ft 8 kts 38°
2026-05-05 20:53 42.22107 -83.35136 641 ft 9 kts 71°
2026-05-05 20:53 42.22081 -83.35087 640 ft 4 kts 178°
2026-05-05 20:54 42.22069 -83.35088 640 ft 0 kts 184°